P/2004 V4 (NEAT)                                                      

T 2005 Jan. 31.29287 TT                                 Nakano

q   1.9199081            (2000.0)            P               Q

n   0.14056626     Peri.  347.17145     -0.02114507     -0.97754910

a   3.6633802      Node   103.74887     +0.93528461     -0.09343418

e   0.4759190      Incl.   12.46413     +0.35326418     +0.18885925

P   7.01 (+/- 0.14 day)

From 125 observations 2004 Oct. 9-Dec. 3.

Residuals in seconds of arc 

2004/                     041109 850  0.3-  0.3-    041121 A32  0.6+  0.0   

041009 699  0.5+  0.0     041109 850  0.1+  0.5-    041121 A32  0.8+  0.3-  

041009 699  1.7-  1.0-    041110 608  0.1-  0.6-    041121 A32  0.7+  0.2+  

041009 699  0.2-  0.7+    041110 608  0.4+  0.8-    041123 A16  0.4-  0.1+  

041009 699  1.2+  0.6+    041110 608  0.5-  0.4-    041123 A16  0.4-  0.5+  

041105 644  0.5+  0.0     041110 213  0.7-  1.8+    041123 A16  0.5-  0.1+  

041105 644  0.3+  0.0     041111 699  0.2+  0.1+    041123 A16  0.7-  0.1+  

041105 644  0.4+  0.2+    041111 699  0.9-  1.3+    041124 A16  0.0   0.2+  

041106 J87  0.1-  0.2+    041111 699  0.4+  0.0     041125 A16  0.7+  1.0-  

041106 J87  0.1-  0.2-    041111 699  0.1+  0.4+    041125 A16  0.4+  1.7-  

041106 785  0.4+  0.1-    041111 213  0.6+  0.0     041125 A16 (2.0+  1.7-) 

041106 670  0.1+  0.5+    041111 213  0.4-  0.2+    041125 A16  1.6+  1.5-  

041106 785 (4.1-  0.3+)   041112 360  0.7-  0.4-    041125 A16 (2.1+  2.9+) 

041106 670 (2.3-  0.7-)   041112 360  0.2-  0.2-    041126 118  0.0   0.2-  

041106 850  0.6-  0.3-    041112 360  0.5-  0.0     041126 118  0.2-  0.3-  

041106 H36  0.4-  0.1+    041113 213  0.1-  0.2+    041126 118  0.0   0.1+  

041106 H36  0.3-  0.1-    041113 213  0.0   0.4+    041126 118  0.1-  0.0   

041106 H36  0.4+  0.4-    041113 213  0.2-  0.8+    041129 785  1.4+  0.6+  

041106 850 (4.1-  0.8-)   041115 246  0.3-  0.4+    041129 785  0.2+  0.4-  

041106 670  0.2-  0.4-    041115 246  0.3-  0.5+    041130 118  0.3-  0.3-  

041106 474  0.2+  0.1-    041115 246  0.3-  0.4+    041130 118  0.2-  0.1-  

041106 474  0.2+  0.1-    041115 246  0.4-  0.4+    041130 118  0.1+  0.4-  

041106 474  0.3+  0.1-    041115 246  0.5-  0.4+    041130 673  0.1+  0.2-  

041106 413  0.0   0.4-    041116 A61  1.1-  0.3+    041130 673  0.2-  0.6-  

041106 413  0.2+  0.3-    041116 A61 (1.7-  2.8+)   041130 673  0.0   0.4-  

041106 413  0.0   0.5-    041116 A61  0.8-  0.5+    041130 673  0.0   0.3-  

041107 850  1.6-  0.8+    041117 204  0.1+  0.1+    041130 561  0.3-  0.3-  

041107 850  0.6+  0.1+    041117 204  0.3+  0.1-    041130 561  0.3-  0.4-  

041107 673  0.3+  0.6-    041117 204  0.2+  0.0     041130 561  0.4-  0.3-  

041107 673  0.2-  0.5-    041117 213  0.3-  0.2+    041201 H42  1.9+  1.2+  

041107 850  0.2-  0.6+    041117 213  0.2-  0.1+    041201 H42 (5.9+  1.5-) 

041107 673  0.1-  0.2-    041117 213  0.1-  0.1-    041201 H42  0.6-  0.6+  

041107 673  0.6+  0.1+    041119 608  0.7+  0.7+    041201 H42  0.5-  1.1+  

041107 644  0.1+  0.1+    041119 608  1.1+  0.4+    041201 H42  0.1+  0.5+  

041107 644  0.0   0.0     041119 608  0.5+  0.8+    041201 H42 (1.8-  3.2+) 

041107 644  0.4+  0.2+    041119 D74  0.5-  0.1+    041201 349  0.4-  0.4+  

041107 360  0.1+  0.2-    041119 D74  0.2-  0.0     041201 349  0.4-  0.4+  

041107 360  0.1-  0.2-    041120 349  0.4-  0.2-    041201 349  0.7-  0.3+  

041107 360  0.1+  0.1-    041120 349  0.1-  0.2-    041202 850  0.3-  0.3-  

041107 D74  0.6+  0.1-    041120 349  0.3-  0.1-    041202 850  0.7+  0.1+  

041107 D74  0.7+  0.4-    041120 130  0.1-  0.1-    041202 360  0.0   0.2-  

041107 D74  0.3+  0.5-    041120 130  0.3-  0.2-    041202 360  0.3-  0.3-  

041107 D74  0.6+  0.4-    041120 130  0.1+  0.0     041203 850  0.2-  0.6+  

041108 850  0.2-  0.0     041120 130  0.0   0.3-    041203 850  0.2-  0.0   

041108 850  0.3-  0.2-    041121 A32  1.5+  0.1-                            

NAKANO

         **** Don't distribute anyone except personal use only ****

                (C) Copyright 2004 OAA/ComputingSection

write mail from CFAD0::NAKANO on 2004-12-09 01:41:38(JST).

 

◎P/2004 V4の軌道と予報位置です



  那賀川の堀寿夫氏と前野拓氏から11月7日の観測が報告されました.

彗星は,周期が7年前後の新周期彗星でした.一時,過去に出現した

彗星と同定できると連結軌道を試算しましたが,無理なようです.



    P/2004 V4 (NEAT)                                                      

T 2005 Jan. 11.67330 TT                                 Nakano

q   1.9822981            (2000.0)            P               Q

n   0.14220899     Peri.  335.85685     +0.13760253     -0.96960120

a   3.6351138      Node   105.72487     +0.93952382     +0.06308844

e   0.4546806      Incl.   12.13413     +0.31362483     +0.23641778

P   6.93 (+/-33.41 day)

From 19 observations 2004 Nov. 5-7.

 

Date/        TT  R.A.(2000) Decl.     Delta   r     Daily motion  Mag.  Moon Age

              h    h  m       。  ,                      ,  / PA 。  m1      。

2004 Nov.  5 16  04 22.53  +03 39.6   1.124  2.057     6.8 / 274  17.4   76  .46

           6 16  04 22.07  +03 40.1   1.118  2.055     7.2 / 275  17.4   88  .36

           7 16  04 21.59  +03 40.7   1.113  2.052     7.6 / 276  17.4  100  .27

           8 16  04 21.08  +03 41.5   1.108  2.050     8.0 / 277  17.3  112  .18

           9 16  04 20.55  +03 42.5   1.103  2.048     8.4 / 278  17.3  124  .11

          10 16  04 19.99  +03 43.8   1.098  2.046     8.8 / 279  17.3  136  .05

          11 16  04 19.41  +03 45.2   1.093  2.044     9.1 / 280  17.3  148  .01

          12 16  04 18.82  +03 46.8   1.089  2.042     9.5 / 281  17.3  158  .00

          13 16  04 18.20  +03 48.7   1.085  2.040     9.8 / 282  17.3  160  .02

          14 16  04 17.56  +03 50.8   1.081  2.039    10.1 / 283  17.3  153  .06

          15 16  04 16.90  +03 53.2   1.078  2.037    10.4 / 284  17.3  141  .13

          16 16  04 16.23  +03 55.7   1.074  2.035    10.7 / 285  17.2  128  .22

          17 16  04 15.54  +03 58.5   1.071  2.033    10.9 / 286  17.2  115  .32

          18 16  04 14.84  +04 01.6   1.068  2.031    11.2 / 287  17.2  101  .44

          19 16  04 14.13  +04 04.9   1.065  2.029    11.4 / 288  17.2   88  .55

          20 16  04 13.40  +04 08.4   1.063  2.028    11.6 / 289  17.2   75  .65

          21 16  04 12.67  +04 12.2   1.060  2.026    11.8 / 290  17.2   63  .75

          22 16  04 11.92  +04 16.3   1.058  2.024    12.0 / 291  17.2   50  .84

          23 16  04 11.17  +04 20.6   1.056  2.023    12.2 / 292  17.2   39  .90

          24 16  04 10.42  +04 25.1   1.055  2.021    12.3 / 293  17.2   29  .95

          25 16  04 09.66  +04 29.9   1.053  2.020    12.5 / 294  17.2   21  .99

          26 16  04 08.90  +04 35.0   1.052  2.018    12.6 / 295  17.2   19 1.00

          27 16  04 08.13  +04 40.3   1.051  2.016    12.7 / 296  17.2   24  .99

          28 16  04 07.37  +04 45.9   1.051  2.015    12.8 / 297  17.2   33  .97

          29 16  04 06.61  +04 51.7   1.050  2.014    12.9 / 298  17.1   43  .93

          30 16  04 05.85  +04 57.8   1.050  2.012    12.9 / 299  17.1   54  .87

     Dec.  1 16  04 05.10  +05 04.1   1.050  2.011    13.0 / 301  17.1   65  .80

NAKANO

         **** Don't distribute anyone except personal use only ****

                (C) Copyright 2004 OAA/ComputingSection

write mail from CFAD0::NAKANO on 2004-11-08 05:54:21(JST).

 

戻ります。